Weather History for KCVG - April, 2015

Change the Weather History Date:

Friday, April 24, 2015

  Actual Average Record
Temperature  
Mean Temperature 47 °F 57 °F  
Max Temperature 61 °F 68 °F 90 °F (1925)
Min Temperature 32 °F 47 °F 29 °F (1919)
Degree Days  
Heating Degree Days 18 9  
Month to date heating degree days 197 295  
Since 1 July heating degree days 5129 4788  
Cooling Degree Days 0 1  
Month to date cooling degree days 5 12  
Year to date cooling degree days 5 12  
Moisture  
Dew Point 28 °F    
Average Humidity 53    
Maximum Humidity 82    
Minimum Humidity 23    
Precipitation  
Precipitation 0.00 in 0.14 in 1.63 in (1975)
Month to date precipitation 4.33 3.07  
Year to date precipitation 14.80 12.84  
Snow  
Snow 0.00 in 0.00 in 0.30 in (2005)
Month to date snowfall 0.0 0.5  
Since 1 July snowfall 29.9 22.1  
Snow Depth 0.00 in    
Sea Level Pressure  
Sea Level Pressure 30.06 in    
Wind  
Wind Speed 5 mph (SSE)    
Max Wind Speed 13 mph    
Max Gust Speed 16 mph    
Visibility 10 miles    
Events      
T = Trace of Precipitation, MM = Missing Value Source: NWS Daily Summary

Daily Weather History Graph

Daily Weather History Graph

Search for Another Location

Airport or City:

Trip Planner

Search our weather history database for the weather conditions in past years. The results will help you decide how hot, cold, wet, or windy it might be!

Date:

Astronomy

Apr. 24, 2015 Rise Set
Actual Time 6:49 AM EDT 8:24 PM EDT
Civil Twilight 6:21 AM EDT 8:52 PM EDT
Nautical Twilight 5:47 AM EDT 9:26 PM EDT
Astronomical Twilight 5:11 AM EDT 10:03 PM EDT
Moon 11:51 AM EDT (4/24) 1:26 AM EDT (4/24)
Length of Visible Light 14h 31m
Length of Day
13h 34m
Waxing Crescent, 37% of the Moon is Illuminated
Apr 24
Waxing Crescent
Apr 25
First Quarter
May 3
Full
May 11
Last Quarter
May 18
New

Hourly Weather History & Observations

Time (EDT) Temp. Windchill Dew Point Humidity Pressure Visibility Wind Dir Wind Speed Gust Speed Precip Events Conditions
12:52 AM 39.9 °F - 28.0 °F 63% 30.10 in 10.0 mi Calm Calm - N/A   Clear
1:52 AM 43.0 °F 40.3 °F 25.0 °F 49% 30.10 in 10.0 mi ENE 4.6 mph - N/A   Clear
2:52 AM 39.9 °F 36.7 °F 26.1 °F 58% 30.09 in 10.0 mi ESE 4.6 mph - N/A   Clear
3:52 AM 39.9 °F 36.7 °F 26.1 °F 58% 30.09 in 10.0 mi East 4.6 mph - N/A   Clear
4:52 AM 37.9 °F 34.4 °F 25.0 °F 60% 30.09 in 10.0 mi SE 4.6 mph - N/A   Clear
5:52 AM 37.0 °F - 24.1 °F 59% 30.10 in 10.0 mi Calm Calm - N/A   Clear
6:52 AM 33.1 °F - 24.1 °F 70% 30.14 in 10.0 mi Calm Calm - N/A   Partly Cloudy
7:52 AM 34.0 °F 31.0 °F 28.0 °F 79% 30.15 in 10.0 mi South 3.5 mph - N/A   Partly Cloudy
8:52 AM 45.0 °F 41.2 °F 28.9 °F 53% 30.14 in 10.0 mi SSE 6.9 mph - N/A   Partly Cloudy
9:52 AM 48.2 °F - 26.6 °F 43% 30.15 in 10.0 mi SSE 9.2 mph - N/A   Scattered Clouds
10:52 AM 51.1 °F - 27.0 °F 39% 30.13 in 10.0 mi South 8.1 mph - N/A   Mostly Cloudy
11:52 AM 53.1 °F - 24.1 °F 32% 30.13 in 10.0 mi Variable 3.5 mph - N/A   Mostly Cloudy
12:52 PM 55.9 °F - 24.1 °F 29% 30.12 in 10.0 mi Variable 3.5 mph - N/A   Mostly Cloudy
1:52 PM 57.9 °F - 28.0 °F 32% 30.09 in 10.0 mi South 5.8 mph - N/A   Overcast
2:52 PM 59.0 °F - 24.1 °F 26% 30.06 in 10.0 mi Calm Calm - N/A   Overcast
3:52 PM 60.1 °F - 23.0 °F 24% 30.02 in 10.0 mi Calm Calm - N/A   Overcast
4:52 PM 60.1 °F - 27.0 °F 28% 29.99 in 10.0 mi Variable 5.8 mph - N/A   Overcast
5:52 PM 61.0 °F - 28.9 °F 30% 29.98 in 10.0 mi South 4.6 mph - N/A   Overcast
6:52 PM 57.9 °F - 30.9 °F 36% 29.97 in 10.0 mi South 6.9 mph - N/A   Overcast
7:52 PM 55.9 °F - 33.1 °F 42% 29.96 in 10.0 mi SSE 9.2 mph - N/A   Overcast
8:52 PM 55.9 °F - 34.0 °F 44% 29.95 in 10.0 mi South 6.9 mph - N/A   Overcast
9:52 PM 55.0 °F - 33.1 °F 43% 29.94 in 10.0 mi South 6.9 mph - N/A   Overcast
10:52 PM 54.0 °F - 33.1 °F 45% 29.92 in 10.0 mi SSE 4.6 mph - N/A   Overcast
11:52 PM 54.0 °F - 32.0 °F 43% 29.89 in 10.0 mi SE 6.9 mph - N/A   Overcast